Flag for Portugal Weather past 2 weeks in Ponta Delgada, Azores, Portugal

Now
64 °F

Passing clouds.


Feels Like: 64 °F
Forecast: N/A
Wind: 5 mph from Northwest

Location: Ponta Delgada / Nordela Acores

Current Time: Sep 16, 2014 at 11:43:09 PM

Latest Report: Sep 16, 2014 at 11:00 PM


Visibility: N/A

Pressure: 30.01 "Hg

Humidity: 68%

Dew point: 54 °F

Location of Ponta DelgadaLocation

Historic Weather in Ponta Delgada — Graph

°F

Ponta Delgada temperature yesterday

Maximum temperature yesterday: 72 °F (at 12:00 PM)
Minimum temperature yesterday: 64 °F (at 4:30 AM)
Average temperature yesterday: 68 °F

Past Weeks' High & Low Weather Summary

 TemperatureHumidityPressure
High79 °F (Sep 4, 12:00 PM)94% (Sep 3, 4:30 AM)30.01 "Hg (Sep 3, 4:30 AM)
Low61 °F (Sep 11, 6:30 AM)52% (Sep 10, 11:00 PM)29.65 "Hg (Sep 15, 12:00 AM)
Average69 °F76%29.87 "Hg
* Reported Sep 1 10:00 PM — Sep 16 10:00 PM, Ponta Delgada, Weather by CustomWeather, © 2014

Note: Actual official high and low records may vary slightly from our data, if they occured in-between our weather recording intervals... More about our weather records

Advertising

Ponta Delgada weather history for previous 24 hours

 ConditionsComfort  
Time TempWeatherWind HumidityBarometerVisibility
10:00 PM
Sep 16
64 °FPassing clouds.7 mph68%29.98 "HgN/A
9:30 PM64 °FPassing clouds.5 mph68%29.98 "HgN/A
9:00 PM64 °FPassing clouds.6 mph68%29.98 "HgN/A
8:30 PM66 °FPassing clouds.8 mph64%29.95 "HgN/A
8:00 PM66 °FPassing clouds.8 mph68%29.95 "HgN/A
7:30 PM66 °FScattered clouds.7 mph68%29.95 "HgN/A
7:00 PM66 °FScattered clouds.10 mph73%29.95 "HgN/A
6:00 PM68 °FScattered clouds.9 mph69%29.92 "HgN/A
5:30 PM70 °FScattered clouds.8 mph60%29.92 "HgN/A
5:00 PM70 °FPassing clouds.12 mph64%29.92 "HgN/A
4:03 PM70 °FScattered clouds.12 mph60%29.92 "HgN/A
4:00 PM70 °FScattered clouds.10 mph60%29.92 "HgN/A
3:30 PM72 °FScattered clouds.10 mph61%29.92 "HgN/A
3:00 PM72 °FScattered clouds.12 mph57%29.92 "HgN/A
2:30 PM72 °FScattered clouds.14 mph61%29.92 "HgN/A
2:00 PM70 °FPassing clouds.12 mph60%29.92 "HgN/A
1:30 PM72 °FPassing clouds.10 mph61%29.92 "HgN/A
1:01 PM72 °FPassing clouds.13 mph61%29.92 "HgN/A
1:00 PM72 °FPassing clouds.12 mph61%29.92 "HgN/A
12:30 PM72 °FPassing clouds.10 mph61%29.92 "HgN/A
12:00 PM70 °FPassing clouds.12 mph64%29.92 "HgN/A
11:30 AM72 °FPassing clouds.9 mph65%29.92 "HgN/A
11:00 AM70 °FPassing clouds.12 mph69%29.92 "HgN/A
10:30 AM70 °FPassing clouds.14 mph73%29.92 "HgN/A
10:00 AM68 °FScattered clouds.10 mph78%29.92 "HgN/A
9:30 AM68 °FScattered showers. Scattered clouds.9 mph78%29.89 "HgN/A
9:00 AM66 °FScattered showers. Scattered clouds.8 mph78%29.89 "HgN/A
8:30 AM66 °FScattered clouds.6 mph78%29.89 "HgN/A
8:00 AM66 °FPassing clouds.9 mph78%29.89 "HgN/A
7:30 AM64 °FPassing clouds.9 mph78%29.89 "HgN/A
7:00 AM64 °FPassing clouds.8 mph78%29.86 "HgN/A
6:30 AM64 °FPassing clouds.10 mph78%29.86 "HgN/A
6:00 AM64 °FPassing clouds.8 mph78%29.86 "HgN/A
5:30 AM64 °FPassing clouds.9 mph78%29.86 "HgN/A
5:00 AM66 °FPassing clouds.8 mph78%29.86 "HgN/A
4:30 AM66 °FPassing clouds.9 mph78%29.86 "HgN/A
4:00 AM64 °FPassing clouds.9 mph78%29.83 "HgN/A
3:30 AM64 °FPassing clouds.9 mph78%29.86 "HgN/A
3:00 AM64 °FPassing clouds.9 mph78%29.86 "HgN/A
2:30 AM66 °FPassing clouds.9 mph78%29.86 "HgN/A
2:00 AM66 °FPassing clouds.8 mph78%29.86 "HgN/A
1:00 AM66 °FPassing clouds.6 mph78%29.86 "HgN/A
12:30 AM66 °FSprinkles. Passing clouds.7 mph78%29.86 "HgN/A
12:00 AM66 °FSprinkles. Passing clouds.8 mph78%29.86 "HgN/A
11:30 PM
Sep 15
66 °FPassing clouds.10 mph78%29.86 "HgN/A
11:00 PM66 °FPassing clouds.9 mph78%29.86 "HgN/A
Weather by CustomWeather, © 2014

See weather overviewHow to use our weather pages